BEESAT-4

Last updated on Sat Sep 23 2023 00:03:01 GMT+0000 (Coordinated Universal Time)

1 41619U 16040W 23265.09710583 .03570428 22894-5 15660-2 0 9992 2 41619 97.1257 317.6234 0009184 250.5399 109.4900 16.22395145392134
UTC large
Height (km)
Speed (km/s)
/
Latitude / Longitude
Inclination (degrees)
Orbital Period (minutes)
Azimuth
Elevation
Range (km)
Doppler Factor

Next 0 passes for location: London (51.5072 / 0.1276)

Sorry there are no passes over London.